STARLINK-1641, 46174

Orbit data source: Space-Track

STARLINK-1641, 46174 is a payload satellite owned by SpaceX/Seattle (US) in LEO that was launched on Tue, 18 Aug 2020 UTC via an FALCON 9 launch vehicle from the Air Force Eastern Test Range (AFETR). Payload-class satellites include a variety of spacecraft equipped with specific instruments for various scientific and technological missions. These include communications satellites like Starlink; space stations such as the ISS; scientific satellites like the Hubble; Earth observation satellites from companies like Planet Labs, Umbra, and HawkEye 360; GPS; miniature CubeSats for education and research; and military/defense satellites.

Loading next visibility...
Identifier
46174, 2020-057BK
Orbit
LEO
Country
Flag of USUS
Related business
Manufacturer
SpaceX/Seattle
Mission
Partially operational Commercial Communications
Bus & Motor
STARLINK, Unknown motor
Mass
260 kg wet, ~248 kg dry
Launch date (UTC)
2020-08-18 (6 years ago)
Launch vehicle
FALCON 9
Launch site
Air Force Eastern Test Range (AFETR)
Object type
Payload
Rocket body
Debris
Shape & HBR
Box + 1 Pan, 10.1 m
Radar Cross Section
13.562 m², Large (>1 m²)

Expand to show TLE details & history
Last TLE update: 11 hours ago

TLE from 11 hours ago
0 STARLINK-1641
1 46174U 20057BK  26122.91256752  .00044815  00000-0  65511-3 0  9999
2 46174  53.0497  23.7267 0004796 115.9164 244.2341 15.55190427314931
Epoch: 2026-05-02T21:54Z
TLE epoch observation values (Epoch: 2026-05-02T21:54:05.833Z)
Latitude
-0.00003°
Longitude
-165.62128°
Altitude
403.911 km
Speed
7.669 km/s
True Right ascension
01h 34m 54s
True Declination
0° 00' 00"
Sunlit
Object was in daylight at epoch
Visualization orbit readout
Latitude
Unknown
Longitude
Unknown
Altitude
Unknown
Speed
Unknown
Apparent Right ascension
Unknown
Apparent Declination
Unknown
Sunlit
N/A
Visualization observer readout
Local Sidereal Time
16:32:53
Azimuth
Unknown
Elevation
Unknown
Doppler factor
Unknown
Orbital elements
Apogee altitude
405.128 km
Perigee altitude
398.625 km
Semi-major axis
6,780.013 km
Eccentricity
0.00048
Inclination
53.0497°
RAAN
23.7267°
Arg. of periapsis
115.9164°
True anomaly
244.18462°
Mean anomaly
244.2341°
Eccentric anomaly
244.20936°
Mean motion
3.88774 °/min
Orbital period
92.6 mins
BSTAR
0.00065511
Loading maneuver chart data...
Computing Atmospheric mass density...
Loading historical data...
Loading historical data...
Loading historical data...
Loading historical data...
Loading historical data...
Loading historical data...
Loading historical data...

Documentation

Showing up to 5 results
|